User: anonymous   Login
Location: Broad Creek
(39.7000°N, 76.2570°W)
Time: 12:23:36
(UTC-04:00)
Language:

ETS-7 - Orbit

View from above orbital plane
View from above orbital plane
View from above satellite
View from above satellite

Ground track
Ground track

The orbit data is extracted from the following two-line orbital elements,

1 25064U 97074B   15143.23843380  .00039511  00000-0  28033-3 0  9997
2 25064 034.9507 172.8496 0002411 148.0030 291.5232 15.72811748974231
Epoch (UTC): 23 May 2015 05:43:20
Eccentricity: 0.0002411
inclination: 34.9507°
perigee height: 349 km
apogee height: 352 km
right ascension of ascending node: 172.8496°
argument of perigee: 148.0030°
revolutions per day: 15.72811748
mean anomaly at epoch: 291.5232°
orbit number at epoch: 97423

The dashed part of the orbit path shows where the satellite is in the earth's shadow,  

DLR